Location: ???????
(55.3754°N, 39.3545°E)
Time: 09:35:08
(UTC+00:00)

Cosmos 2058 - Pass Details

Date: 14 April 2026
Orbit: 523 x 538 km, 82.5° (Epoch: 19 May)

Event Time Altitude Azimuth Distance (km) Brightness Sun altitude
Rises 19:30:54 0° 349° (N) 2,698 7.6 -20.9°
Reaches altitude 10° 19:33:06 10° 353° (N) 1,800 6.4 -21.1°
Maximum altitude 19:37:01 62° 75° (ENE) 604 2.8 -21.3°
Enters shadow 19:37:09 62° 87° (E) 607 2.8 -21.3°
